QPF
0.11 0.11 0.08 0.08 0.10 0.11 0.09 0.08 0.07 0.07 0.05 0.03 0.02 0.02 0.02 0.01 0.01 0.01 0.01 0.01 0.02 0.02 0.02 0.02 0.02 0.02 0.02 0.02 0.02 0.02 0.02 0.02 0.02 0.02 0.02 0.02 0.01 0.01 0.01 0.01 0.01 0.01 0.01
0.11 0.13 0.11 0.08 0.07 0.09 0.09 0.09 0.07 0.07 0.06 0.04 0.03 0.02 0.02 0.01 0.01 0.01 0.01 0.01 0.01 0.01 0.01 0.02 0.02 0.02 0.01 0.01 0.01 0.01 0.02 0.02 0.02 0.02 0.02 0.02 0.01 0.01 0.01 0.01 0.01 0.01 0.01
0.11 0.12 0.12 0.10 0.07 0.07 0.08 0.07 0.06 0.05 0.04 0.04 0.03 0.03 0.03 0.03 0.02 0.02 0.01 0.01 0.01 0.01 0.01 0.01 0.01 0.01 0.01 0.01 0.01 0.01 0.01 0.02 0.02 0.02 0.02 0.02 0.01 0.01 0.01 0.01 0.01 0.01 0.00
0.14 0.15 0.13 0.11 0.09 0.08 0.06 0.04 0.03 0.03 0.03 0.02 0.02 0.01 0.01 0.02 0.02 0.02 0.02 0.01 0.01 0.01 0.01 0.01 0.01 0.01 0.01 0.01 0.01 0.01 0.01 0.02 0.02 0.02 0.01 0.02 0.02 0.01 0.02 0.02 0.01 0.01 0.00
0.12 0.12 0.12 0.11 0.10 0.08 0.05 0.03 0.03 0.02 0.01 0.01 0.01 0.01 0.01 0.00 0.00 0.00 0.00 0.01 0.01 0.01 0.01 0.01 0.01 0.01 0.01 0.01 0.01 0.01 0.01 0.01 0.01 0.01 0.01 0.02 0.02 0.02 0.02 0.01 0.01 0.01 0.01
0.09 0.09 0.09 0.08 0.06 0.05 0.04 0.03 0.02 0.02 0.01 0.01 0.01 0.01 0.01 0.00 0.00 0.00 0.00 0.00 0.00 0.01 0.01 0.01 0.01 0.01 0.01 0.01 0.01 0.01 0.01 0.01 0.02 0.02 0.02 0.02 0.02 0.02 0.01 0.01 0.01 0.01 0.01
0.07 0.06 0.05 0.04 0.03 0.03 0.02 0.02 0.01 0.01 0.01 0.01 0.01 0.01 0.01 0.00 0.00 0.00 0.00 0.00 0.00 0.01 0.01 0.01 0.01 0.00 0.00 0.01 0.01 0.00 0.00 0.00 0.01 0.01 0.02 0.02 0.02 0.02 0.02 0.02 0.02 0.02 0.02
0.04 0.04 0.03 0.02 0.02 0.02 0.01 0.01 0.01 0.01 0.01 0.01 0.01 0.01 0.01 0.01 0.00 0.00 0.00 0.01 0.01 0.01 0.01 0.01 0.01 0.01 0.01 0.00 0.00 0.00 0.00 0.00 0.00 0.00 0.01 0.01 0.01 0.01 0.01 0.01 0.01 0.02 0.03
0.03 0.02 0.02 0.01 0.01 0.01 0.01 0.01 0.01 0.01 0.01 0.01 0.01 0.01 0.01 0.01 0.00 0.00 0.00 0.01 0.01 0.01 0.01 0.01 0.01 0.01 0.00 0.00 0.01 0.01 0.01 0.01 0.00 0.00 0.00 0.00 0.00 0.00 0.00 0.01 0.02 0.03 0.05
0.02 0.01 0.01 0.01 0.01 0.01 0.01 0.01 0.01 0.01 0.01 0.01 0.01 0.01 0.01 0.01 0.00 0.00 0.00 0.01 0.01 0.01 0.01 0.01 0.00 0.00 0.00 0.00 0.01 0.02 0.02 0.02 0.01 0.01 0.01 0.01 0.01 0.01 0.00 0.01 0.04 0.04 0.05
0.01 0.01 0.02 0.01 0.01 0.01 0.01 0.01 0.01 0.01 0.01 0.01 0.01 0.01 0.01 0.00 0.00 0.00 0.00 0.00 0.01 0.01 0.01 0.02 0.01 0.00 0.00 0.00 0.00 0.02 0.01 0.01 0.01 0.02 0.03 0.03 0.04 0.05 0.04 0.02 0.03 0.04 0.06
0.02 0.02 0.02 0.01 0.00 0.00 0.01 0.01 0.01 0.01 0.01 0.01 0.01 0.02 0.01 0.01 0.00 0.00 0.00 0.00 0.00 0.01 0.01 0.01 0.01 0.00 0.00 0.00 0.00 0.01 0.00 0.00 0.02 0.03 0.04 0.04 0.04 0.04 0.04 0.03 0.02 0.02 0.03
0.02 0.02 0.01 0.01 0.00 0.01 0.01 0.01 0.01 0.01 0.01 0.01 0.01 0.01 0.01 0.01 0.01 0.00 0.00 0.00 0.00 0.01 0.01 0.00 0.01 0.01 0.01 0.02 0.00 0.00 0.01 0.02 0.04 0.05 0.05 0.04 0.03 0.02 0.01 0.02 0.02 0.02 0.02
0.02 0.02 0.01 0.01 0.01 0.01 0.01 0.00 0.01 0.01 0.01 0.01 0.01 0.01 0.02 0.02 0.01 0.01 0.01 0.01 0.01 0.01 0.02 0.01 0.01 0.01 0.02 0.02 0.02 0.02 0.02 0.02 0.03 0.03 0.04 0.03 0.02 0.01 0.01 0.01 0.02 0.03 0.04
0.02 0.01 0.01 0.01 0.01 0.01 0.01 0.00 0.00 0.00 0.00 0.00 0.01 0.01 0.01 0.01 0.00 0.00 0.00 0.00 0.01 0.00 0.01 0.02 0.03 0.04 0.04 0.04 0.03 0.03 0.03 0.02 0.01 0.02 0.04 0.04 0.03 0.03 0.02 0.01 0.01 0.01 0.04
0.02 0.01 0.01 0.00 0.00 0.00 0.01 0.00 0.00 0.00 0.00 0.00 0.00 0.00 0.00 0.00 0.00 0.00 0.00 0.00 0.00 0.00 0.01 0.03 0.02 0.01 0.02 0.03 0.02 0.01 0.01 0.01 0.02 0.02 0.03 0.03 0.03 0.02 0.01 0.01 0.01 0.02 0.03
0.01 0.01 0.00 0.00 0.00 0.00 0.00 0.01 0.01 0.01 0.00 0.00 0.00 0.00 0.00 0.00 0.00 0.00 0.00 0.01 0.01 0.00 0.01 0.02 0.01 0.01 0.02 0.02 0.01 0.00 0.00 0.00 0.01 0.01 0.02 0.01 0.01 0.01 0.01 0.02 0.02 0.02 0.02
0.01 0.00 0.00 0.00 0.00 0.00 0.00 0.00 0.00 0.01 0.01 0.01 0.00 0.00 0.00 0.00 0.00 0.00 0.00 0.00 0.00 0.00 0.00 0.00 0.00 0.00 0.00 0.00 0.01 0.00 0.00 0.00 0.00 0.01 0.01 0.01 0.01 0.01 0.01 0.02 0.04 0.03 0.03
0.00 0.00 0.01 0.00 0.00 0.00 0.00 0.00 0.00 0.00 0.01 0.01 0.01 0.00 0.00 0.00 0.00 0.00 0.00 0.01 0.00 0.00 0.00 0.00 0.00 0.00 0.00 0.00 0.00 0.00 0.00 0.00 0.00 0.01 0.01 0.01 0.01 0.02 0.02 0.01 0.02 0.01 0.01
0.00 0.00 0.00 0.00 0.00 0.00 0.00 0.00 0.00 0.00 0.00 0.00 0.00 0.01 0.01 0.01 0.01 0.01 0.00 0.00 0.00 0.00 0.00 0.00 0.00 0.00 0.00 0.00 0.00 0.00 0.00 0.00 0.00 0.00 0.00 0.00 0.00 0.01 0.01 0.00 0.00 0.00 0.01
0.00 0.00 0.00 0.00 0.00 0.00 0.00 0.00 0.00 0.00 0.00 0.01 0.00 0.00 0.00 0.01 0.00 0.00 0.00 0.00 0.00 0.00 0.00 0.00 0.00 0.00 0.00 0.00 0.00 0.00 0.00 0.00 0.00 0.00 0.00 0.00 0.00 0.00 0.00 0.00 0.00 0.00 0.01
0.00 0.00 0.00 0.00 0.00 0.00 0.00 0.00 0.00 0.01 0.00 0.00 0.00 0.00 0.00 0.00 0.00 0.00 0.00 0.00 0.00 0.00 0.00 0.00 0.00 0.00 0.00 0.00 0.00 0.00 0.00 0.00 0.00 0.00 0.00 0.00 0.00 0.00 0.00 0.00 0.00 0.00 0.01
0.00 0.00 0.00 0.00 0.00 0.00 0.00 0.00 0.00 0.00 0.00 0.00 0.00 0.00 0.00 0.00 0.00 0.00 0.00 0.00 0.00 0.00 0.00 0.00 0.00 0.00 0.00 0.00 0.00 0.00 0.00 0.00 0.00 0.00 0.00 0.00 0.00 0.00 0.00 0.00 0.01 0.01 0.01
0.00 0.00 0.00 0.00 0.00 0.00 0.00 0.00 0.00 0.00 0.00 0.00 0.00 0.00 0.00 0.01 0.00 0.00 0.00 0.00 0.00 0.00 0.00 0.00 0.00 0.00 0.00 0.00 0.00 0.00 0.00 0.00 0.00 0.00 0.00 0.00 0.00 0.00 0.00 0.00 0.00 0.00 0.00
0.00 0.00 0.00 0.00 0.00 0.00 0.00 0.00 0.00 0.00 0.00 0.00 0.00 0.00 0.00 0.00 0.00 0.00 0.00 0.00 0.00 0.00 0.00 0.00 0.00 0.00 0.00 0.00 0.00 0.00 0.00 0.00 0.00 0.00 0.00 0.00 0.00 0.00 0.00 0.00 0.00 0.00 0.00
0.00 0.00 0.00 0.00 0.00 0.00 0.00 0.00 0.00 0.00 0.00 0.00 0.00 0.00 0.00 0.00 0.00 0.00 0.00 0.00 0.00 0.00 0.00 0.00 0.00 0.00 0.00 0.00 0.00 0.00 0.00 0.00 0.00 0.00 0.00 0.00 0.00 0.00 0.00 0.00 0.00 0.00 0.00
MSLP
1018.33 1018.58 1018.94 1019.40 1019.94 1020.53 1021.13 1021.73 1022.28 1022.77 1023.17 1023.49 1023.71 1023.85 1023.92 1023.94 1023.94 1023.92 1023.91 1023.91 1023.93 1023.95 1023.97 1023.97 1023.97 1023.94 1023.91 1023.86 1023.81 1023.77 1023.74 1023.72 1023.70 1023.69 1023.67 1023.64 1023.58 1023.49 1023.38 1023.25 1023.11 1022.96 1022.82
1019.70 1019.94 1020.26 1020.64 1021.07 1021.54 1022.02 1022.49 1022.93 1023.33 1023.66 1023.92 1024.11 1024.23 1024.30 1024.33 1024.34 1024.34 1024.35 1024.37 1024.40 1024.44 1024.48 1024.51 1024.52 1024.51 1024.48 1024.42 1024.36 1024.28 1024.20 1024.13 1024.05 1023.97 1023.87 1023.76 1023.63 1023.47 1023.29 1023.10 1022.90 1022.72 1022.55
1020.98 1021.22 1021.49 1021.79 1022.12 1022.47 1022.83 1023.18 1023.52 1023.83 1024.10 1024.32 1024.49 1024.61 1024.68 1024.71 1024.73 1024.74 1024.76 1024.78 1024.83 1024.88 1024.94 1024.98 1025.02 1025.02 1025.01 1024.96 1024.89 1024.80 1024.69 1024.58 1024.44 1024.30 1024.13 1023.95 1023.74 1023.51 1023.26 1023.00 1022.74 1022.50 1022.29
1022.06 1022.29 1022.51 1022.75 1022.98 1023.23 1023.48 1023.74 1024.00 1024.26 1024.49 1024.69 1024.86 1024.98 1025.06 1025.11 1025.14 1025.15 1025.17 1025.19 1025.22 1025.27 1025.33 1025.39 1025.44 1025.47 1025.47 1025.44 1025.38 1025.29 1025.17 1025.02 1024.85 1024.65 1024.43 1024.18 1023.90 1023.60 1023.28 1022.95 1022.63 1022.34 1022.08
1022.85 1023.06 1023.26 1023.43 1023.60 1023.76 1023.94 1024.14 1024.35 1024.58 1024.80 1025.02 1025.20 1025.35 1025.46 1025.52 1025.56 1025.57 1025.57 1025.58 1025.60 1025.63 1025.68 1025.74 1025.79 1025.83 1025.86 1025.85 1025.80 1025.72 1025.59 1025.43 1025.23 1024.99 1024.71 1024.41 1024.07 1023.70 1023.33 1022.94 1022.57 1022.22 1021.92
1023.32 1023.53 1023.69 1023.83 1023.94 1024.06 1024.20 1024.37 1024.57 1024.79 1025.04 1025.28 1025.50 1025.69 1025.83 1025.92 1025.96 1025.97 1025.96 1025.95 1025.94 1025.95 1025.98 1026.02 1026.07 1026.13 1026.16 1026.17 1026.14 1026.06 1025.93 1025.76 1025.53 1025.26 1024.95 1024.59 1024.21 1023.81 1023.38 1022.96 1022.55 1022.17 1021.83
1023.51 1023.71 1023.86 1023.97 1024.06 1024.16 1024.28 1024.45 1024.65 1024.90 1025.18 1025.47 1025.74 1025.97 1026.14 1026.26 1026.32 1026.33 1026.30 1026.27 1026.23 1026.21 1026.21 1026.24 1026.29 1026.34 1026.38 1026.39 1026.36 1026.29 1026.16 1025.97 1025.73 1025.43 1025.10 1024.71 1024.30 1023.87 1023.43 1022.98 1022.55 1022.15 1021.79
1023.51 1023.70 1023.84 1023.94 1024.03 1024.13 1024.26 1024.43 1024.66 1024.94 1025.26 1025.58 1025.90 1026.17 1026.38 1026.53 1026.60 1026.61 1026.58 1026.52 1026.46 1026.42 1026.40 1026.40 1026.43 1026.47 1026.50 1026.51 1026.48 1026.40 1026.26 1026.06 1025.80 1025.49 1025.13 1024.74 1024.32 1023.88 1023.43 1022.99 1022.57 1022.17 1021.80
1023.41 1023.59 1023.74 1023.85 1023.95 1024.06 1024.20 1024.40 1024.66 1024.96 1025.31 1025.67 1026.01 1026.31 1026.55 1026.72 1026.80 1026.82 1026.79 1026.72 1026.64 1026.58 1026.53 1026.51 1026.52 1026.54 1026.55 1026.55 1026.50 1026.41 1026.25 1026.04 1025.76 1025.44 1025.07 1024.67 1024.26 1023.83 1023.40 1022.98 1022.57 1022.19 1021.83
1023.32 1023.51 1023.66 1023.79 1023.91 1024.05 1024.22 1024.43 1024.70 1025.02 1025.38 1025.75 1026.11 1026.43 1026.68 1026.86 1026.96 1026.98 1026.95 1026.88 1026.79 1026.71 1026.65 1026.61 1026.58 1026.57 1026.56 1026.52 1026.45 1026.33 1026.15 1025.92 1025.63 1025.30 1024.93 1024.54 1024.13 1023.72 1023.32 1022.93 1022.55 1022.19 1021.86
1023.31 1023.51 1023.69 1023.85 1024.00 1024.16 1024.35 1024.58 1024.86 1025.18 1025.53 1025.90 1026.25 1026.57 1026.82 1027.01 1027.11 1027.14 1027.11 1027.04 1026.95 1026.85 1026.77 1026.70 1026.64 1026.59 1026.54 1026.47 1026.36 1026.21 1026.00 1025.74 1025.44 1025.10 1024.73 1024.35 1023.96 1023.58 1023.21 1022.85 1022.50 1022.17 1021.84
1023.42 1023.64 1023.85 1024.04 1024.23 1024.42 1024.62 1024.86 1025.13 1025.44 1025.78 1026.13 1026.46 1026.76 1027.01 1027.19 1027.29 1027.32 1027.30 1027.22 1027.12 1027.01 1026.90 1026.80 1026.70 1026.62 1026.52 1026.40 1026.25 1026.06 1025.83 1025.55 1025.23 1024.89 1024.52 1024.15 1023.78 1023.42 1023.07 1022.74 1022.42 1022.10 1021.79
1023.63 1023.89 1024.13 1024.36 1024.58 1024.79 1025.02 1025.26 1025.52 1025.81 1026.13 1026.44 1026.75 1027.02 1027.25 1027.42 1027.51 1027.54 1027.50 1027.42 1027.31 1027.18 1027.04 1026.90 1026.77 1026.63 1026.49 1026.33 1026.14 1025.92 1025.66 1025.36 1025.04 1024.70 1024.34 1023.97 1023.62 1023.27 1022.94 1022.62 1022.30 1021.99 1021.68
1023.92 1024.21 1024.49 1024.76 1025.00 1025.23 1025.47 1025.71 1025.96 1026.23 1026.52 1026.80 1027.08 1027.33 1027.53 1027.67 1027.75 1027.76 1027.72 1027.62 1027.48 1027.32 1027.15 1026.97 1026.80 1026.62 1026.44 1026.24 1026.02 1025.78 1025.51 1025.21 1024.89 1024.55 1024.19 1023.84 1023.49 1023.15 1022.82 1022.50 1022.18 1021.86 1021.54
1024.23 1024.55 1024.85 1025.14 1025.40 1025.65 1025.89 1026.13 1026.37 1026.62 1026.89 1027.15 1027.39 1027.61 1027.78 1027.90 1027.95 1027.94 1027.87 1027.75 1027.59 1027.40 1027.19 1026.98 1026.77 1026.56 1026.35 1026.13 1025.91 1025.66 1025.39 1025.10 1024.79 1024.46 1024.12 1023.77 1023.42 1023.07 1022.73 1022.39 1022.06 1021.72 1021.38
1024.51 1024.83 1025.14 1025.43 1025.70 1025.95 1026.19 1026.43 1026.66 1026.90 1027.15 1027.39 1027.61 1027.80 1027.94 1028.03 1028.06 1028.02 1027.92 1027.76 1027.57 1027.34 1027.11 1026.88 1026.65 1026.43 1026.22 1026.00 1025.79 1025.56 1025.32 1025.05 1024.76 1024.45 1024.12 1023.78 1023.42 1023.06 1022.69 1022.33 1021.97 1021.61 1021.24
1024.70 1025.00 1025.30 1025.58 1025.84 1026.08 1026.31 1026.54 1026.77 1027.01 1027.24 1027.47 1027.67 1027.84 1027.96 1028.02 1028.01 1027.94 1027.81 1027.62 1027.40 1027.16 1026.91 1026.67 1026.44 1026.23 1026.04 1025.86 1025.69 1025.50 1025.30 1025.07 1024.81 1024.52 1024.20 1023.85 1023.48 1023.10 1022.70 1022.31 1021.91 1021.52 1021.13
1024.77 1025.05 1025.30 1025.55 1025.78 1026.00 1026.22 1026.45 1026.68 1026.91 1027.14 1027.36 1027.55 1027.71 1027.81 1027.84 1027.80 1027.70 1027.54 1027.33 1027.09 1026.84 1026.60 1026.38 1026.18 1026.01 1025.87 1025.75 1025.63 1025.50 1025.35 1025.17 1024.95 1024.68 1024.36 1024.00 1023.60 1023.19 1022.76 1022.32 1021.89 1021.47 1021.06
1024.74 1024.95 1025.16 1025.35 1025.55 1025.74 1025.94 1026.16 1026.39 1026.63 1026.86 1027.08 1027.27 1027.42 1027.50 1027.51 1027.46 1027.33 1027.15 1026.94 1026.70 1026.46 1026.24 1026.06 1025.92 1025.82 1025.75 1025.70 1025.66 1025.60 1025.50 1025.36 1025.17 1024.90 1024.58 1024.19 1023.77 1023.31 1022.84 1022.36 1021.89 1021.44 1021.02
1024.61 1024.75 1024.89 1025.03 1025.18 1025.34 1025.53 1025.74 1025.96 1026.21 1026.45 1026.68 1026.87 1027.01 1027.09 1027.09 1027.02 1026.89 1026.71 1026.50 1026.28 1026.08 1025.92 1025.80 1025.73 1025.71 1025.73 1025.76 1025.79 1025.80 1025.76 1025.65 1025.46 1025.19 1024.84 1024.42 1023.95 1023.44 1022.92 1022.40 1021.90 1021.42 1020.99
1024.42 1024.49 1024.56 1024.64 1024.74 1024.87 1025.04 1025.24 1025.47 1025.73 1025.98 1026.22 1026.42 1026.57 1026.64 1026.65 1026.58 1026.45 1026.28 1026.10 1025.92 1025.78 1025.68 1025.64 1025.66 1025.73 1025.83 1025.95 1026.05 1026.11 1026.10 1026.00 1025.80 1025.51 1025.12 1024.65 1024.12 1023.56 1022.98 1022.42 1021.89 1021.39 1020.94
1024.21 1024.22 1024.22 1024.25 1024.31 1024.41 1024.56 1024.75 1024.99 1025.25 1025.52 1025.77 1025.98 1026.13 1026.21 1026.22 1026.17 1026.06 1025.92 1025.78 1025.66 1025.58 1025.56 1025.60 1025.71 1025.87 1026.06 1026.24 1026.40 1026.49 1026.49 1026.38 1026.15 1025.82 1025.37 1024.84 1024.25 1023.63 1023.01 1022.41 1021.85 1021.34 1020.89
1024.02 1023.97 1023.93 1023.91 1023.93 1024.00 1024.14 1024.33 1024.56 1024.83 1025.10 1025.36 1025.58 1025.74 1025.83 1025.85 1025.82 1025.74 1025.64 1025.55 1025.49 1025.49 1025.55 1025.68 1025.87 1026.10 1026.36 1026.59 1026.78 1026.88 1026.87 1026.73 1026.46 1026.07 1025.57 1024.97 1024.33 1023.66 1022.99 1022.37 1021.79 1021.27 1020.82
1023.87 1023.78 1023.69 1023.64 1023.63 1023.68 1023.80 1023.98 1024.21 1024.47 1024.75 1025.00 1025.22 1025.38 1025.49 1025.53 1025.52 1025.47 1025.42 1025.38 1025.38 1025.45 1025.58 1025.79 1026.05 1026.35 1026.65 1026.91 1027.11 1027.20 1027.17 1026.99 1026.68 1026.23 1025.67 1025.02 1024.33 1023.63 1022.94 1022.30 1021.72 1021.21 1020.77
1023.76 1023.64 1023.53 1023.45 1023.42 1023.45 1023.55 1023.71 1023.93 1024.17 1024.43 1024.68 1024.89 1025.05 1025.16 1025.21 1025.22 1025.21 1025.19 1025.21 1025.27 1025.40 1025.60 1025.86 1026.18 1026.51 1026.84 1027.12 1027.31 1027.39 1027.33 1027.12 1026.77 1026.28 1025.68 1025.00 1024.29 1023.57 1022.88 1022.24 1021.68 1021.18 1020.77
1023.67 1023.53 1023.40 1023.31 1023.26 1023.27 1023.34 1023.48 1023.67 1023.90 1024.13 1024.36 1024.55 1024.70 1024.80 1024.86 1024.89 1024.90 1024.92 1024.98 1025.09 1025.27 1025.52 1025.82 1026.18 1026.54 1026.88 1027.17 1027.36 1027.42 1027.34 1027.11 1026.73 1026.22 1025.61 1024.93 1024.22 1023.51 1022.84 1022.23 1021.69 1021.23 1020.83
Thickness
5593 5593 5593 5591 5590 5589 5588 5585 5584 5583 5583 5583 5582 5581 5581 5580 5579 5579 5578 5577 5577 5576 5575 5574 5573 5573 5575 5576 5575 5574 5573 5572 5568 5563 5558 5553 5549 5547 5545 5542 5541 5538 5537
5579 5579 5578 5577 5576 5576 5574 5572 5571 5571 5571 5570 5570 5569 5568 5567 5566 5566 5565 5564 5563 5563 5561 5561 5560 5560 5559 5560 5560 5559 5557 5554 5554 5549 5546 5543 5538 5536 5533 5531 5532 5530 5527
5566 5566 5564 5563 5562 5561 5561 5560 5559 5559 5558 5558 5558 5557 5556 5555 5554 5553 5553 5552 5550 5549 5548 5547 5547 5546 5546 5545 5545 5546 5544 5542 5540 5539 5537 5532 5531 5527 5525 5525 5524 5520 5520
5553 5552 5551 5549 5549 5549 5548 5548 5547 5547 5547 5547 5546 5545 5545 5544 5542 5542 5541 5539 5538 5536 5535 5535 5534 5533 5532 5532 5532 5530 5530 5530 5528 5529 5527 5525 5522 5519 5517 5517 5516 5515 5513
5542 5541 5539 5537 5537 5537 5537 5536 5535 5536 5536 5536 5535 5534 5533 5532 5530 5529 5529 5528 5527 5525 5524 5523 5521 5517 5515 5516 5518 5517 5518 5519 5520 5519 5517 5516 5512 5510 5509 5508 5508 5507 5506
5531 5530 5528 5528 5527 5527 5527 5526 5525 5526 5525 5525 5525 5524 5523 5520 5514 5513 5515 5517 5517 5516 5515 5514 5512 5509 5505 5504 5503 5501 5501 5504 5506 5506 5506 5504 5501 5501 5499 5499 5500 5499 5498
5523 5522 5521 5521 5520 5519 5519 5518 5517 5516 5516 5515 5515 5514 5511 5505 5502 5503 5504 5508 5508 5506 5505 5505 5505 5501 5499 5499 5496 5493 5492 5490 5488 5491 5495 5493 5492 5492 5490 5492 5491 5491 5490
5516 5515 5514 5514 5513 5512 5511 5510 5509 5508 5508 5507 5506 5504 5502 5496 5494 5494 5495 5499 5499 5497 5497 5496 5495 5493 5491 5488 5491 5492 5491 5488 5485 5485 5485 5484 5484 5482 5482 5483 5484 5486 5487
5510 5509 5509 5508 5506 5505 5504 5502 5501 5500 5500 5499 5498 5496 5495 5490 5486 5487 5486 5493 5493 5491 5490 5487 5486 5486 5478 5478 5482 5485 5485 5484 5480 5478 5477 5477 5476 5475 5475 5479 5484 5486 5486
5504 5503 5502 5501 5500 5499 5497 5496 5495 5494 5494 5494 5491 5490 5488 5484 5479 5480 5479 5489 5488 5488 5485 5482 5475 5474 5471 5471 5476 5479 5479 5478 5479 5479 5477 5476 5476 5476 5473 5474 5479 5482 5483
5499 5498 5497 5495 5494 5493 5492 5491 5490 5490 5488 5488 5486 5484 5481 5477 5474 5473 5473 5479 5482 5482 5482 5480 5473 5467 5466 5466 5467 5470 5469 5469 5475 5478 5478 5479 5479 5478 5478 5477 5476 5477 5478
5494 5493 5491 5490 5491 5489 5487 5486 5486 5485 5484 5483 5481 5480 5478 5474 5470 5467 5467 5467 5468 5474 5475 5473 5468 5463 5462 5462 5463 5463 5464 5465 5473 5476 5477 5477 5478 5478 5477 5476 5475 5474 5473
5490 5488 5487 5486 5485 5484 5484 5483 5483 5481 5482 5481 5480 5478 5476 5473 5467 5464 5463 5463 5463 5467 5467 5462 5460 5460 5460 5461 5459 5461 5463 5468 5470 5472 5473 5474 5476 5475 5476 5476 5476 5475 5475
5486 5485 5484 5483 5482 5480 5481 5481 5481 5479 5478 5477 5476 5475 5472 5470 5467 5464 5465 5465 5461 5463 5464 5461 5458 5458 5459 5458 5460 5462 5464 5464 5465 5468 5470 5473 5474 5475 5476 5477 5478 5478 5478
5484 5483 5482 5481 5480 5478 5476 5473 5473 5469 5467 5468 5469 5469 5468 5465 5455 5451 5453 5459 5458 5458 5458 5463 5462 5461 5460 5460 5461 5461 5462 5463 5465 5466 5468 5470 5472 5474 5475 5477 5477 5479 5479
5483 5482 5482 5481 5478 5478 5475 5471 5462 5461 5458 5456 5455 5455 5456 5452 5449 5448 5448 5449 5450 5451 5455 5460 5459 5458 5458 5458 5458 5459 5460 5460 5461 5463 5466 5468 5470 5473 5475 5476 5478 5478 5479
5481 5481 5481 5480 5478 5477 5475 5473 5469 5460 5455 5453 5452 5451 5450 5448 5448 5447 5447 5447 5449 5449 5456 5457 5455 5454 5454 5454 5455 5456 5457 5458 5458 5461 5464 5467 5470 5472 5474 5476 5478 5478 5479
5481 5478 5478 5478 5477 5476 5475 5474 5472 5470 5466 5461 5454 5451 5450 5448 5448 5447 5447 5448 5453 5453 5455 5454 5453 5452 5452 5451 5452 5453 5454 5456 5458 5460 5462 5465 5468 5470 5473 5475 5477 5477 5479
5482 5481 5479 5478 5477 5476 5475 5474 5473 5471 5469 5466 5464 5457 5452 5450 5448 5448 5449 5454 5456 5455 5454 5453 5452 5451 5450 5450 5450 5450 5451 5454 5455 5457 5461 5463 5466 5469 5473 5476 5478 5477 5478
5481 5475 5476 5480 5480 5479 5477 5475 5474 5472 5470 5468 5466 5464 5460 5459 5458 5456 5455 5455 5454 5454 5452 5451 5450 5448 5448 5449 5449 5450 5452 5454 5455 5459 5461 5463 5466 5470 5473 5476 5479 5481 5483
5487 5482 5475 5481 5483 5481 5480 5478 5476 5474 5472 5470 5468 5462 5455 5462 5461 5459 5457 5455 5454 5453 5451 5449 5450 5449 5449 5449 5450 5451 5451 5454 5455 5457 5460 5463 5466 5470 5473 5477 5480 5482 5484
5490 5489 5488 5487 5485 5484 5482 5481 5479 5477 5475 5473 5471 5467 5458 5462 5464 5462 5460 5457 5455 5452 5451 5449 5450 5450 5448 5448 5448 5449 5451 5453 5455 5456 5458 5462 5467 5471 5475 5478 5481 5483 5485
5493 5493 5491 5490 5488 5482 5484 5484 5483 5481 5479 5476 5475 5472 5470 5468 5466 5464 5462 5459 5456 5454 5452 5450 5449 5450 5448 5447 5447 5448 5450 5451 5452 5453 5457 5462 5467 5472 5475 5478 5481 5483 5486
5499 5497 5496 5495 5493 5492 5490 5488 5487 5485 5483 5480 5478 5476 5474 5470 5469 5466 5464 5462 5459 5457 5454 5453 5451 5450 5447 5447 5449 5451 5449 5447 5448 5453 5457 5461 5467 5473 5476 5479 5482 5484 5486
5504 5502 5502 5500 5498 5497 5494 5493 5491 5489 5487 5484 5482 5480 5479 5476 5474 5471 5469 5466 5463 5461 5458 5456 5454 5453 5451 5450 5450 5450 5448 5449 5450 5453 5457 5464 5470 5473 5477 5480 5483 5484 5485
5509 5507 5507 5505 5503 5501 5499 5497 5495 5493 5491 5489 5487 5485 5483 5481 5479 5477 5474 5471 5468 5466 5462 5460 5458 5456 5454 5454 5452 5451 5451 5452 5454 5456 5459 5465 5472 5476 5478 5481 5483 5486 5486